[[{"header":{"parameterUnit":"m.s-1","parameterCategory":1,"la1":30.2991,"la2":30.254,"lo1":-89.0895,"lo2":-89.0444,"dy":0.0017,"dx":0.0017,"nx":28,"ny":28,"refTime":"2024-04-02T03:00:00:Z","depth":0,"parameterNumber":2,"parameterNumberName":"U-component_of_WINDS"},"data":[0,0,0,0,0,0,0,0,0,0,0,0,0,0,0,0,0,0,0,0,0,0,0,0,0,0,0,0,0,0,0,0,0,0,0,0,0,0,0,0,0,0,0,0,0,0,0,0,0,0,0,0,0,0,0,0,0,0,-0.2095,-0.2096,0,-0.2156,-0.2157,-0.2158,-0.2203,-0.2203,-0.2204,-0.2204,-0.2269,-0.227,-0.2271,0,0,0,0,0,0,0,0,0,0,0,0,0,-0.202,-0.2021,-0.2095,-0.2096,-0.2097,-0.2156,-0.2157,-0.2158,-0.2203,-0.2203,-0.2204,-0.2204,-0.2268,-0.227,-0.2271,0,0,0,0,0,0,0,0,0,0,0,0,0,-0.2064,-0.2022,-0.2095,-0.2126,-0.213,-0.2156,-0.2157,-0.2158,-0.2203,-0.2204,-0.2204,-0.2205,-0.2268,-0.227,-0.2272,-0.2272,0,0,-0.2278,-0.2279,0,0,0,0,0,0,0,0,-0.2062,-0.2067,-0.2121,-0.2124,-0.2128,-0.2173,-0.2154,-0.2196,-0.2203,-0.2175,-0.2204,-0.2205,-0.2236,-0.2241,-0.2251,-0.2275,-0.2278,-0.2278,-0.2279,-0.228,-0.2281,0,0,0,0,0,0,0,-0.2059,-0.2065,-0.212,-0.2122,-0.2126,-0.2138,-0.2145,-0.2162,-0.2202,-0.2178,-0.2181,-0.2188,-0.2238,-0.2249,-0.2253,-0.2279,-0.2278,-0.228,-0.2281,-0.2282,-0.2307,-0.2307,0,0,0,0,0,0,-0.205,-0.2062,-0.2118,-0.2121,-0.2096,-0.2139,-0.2147,-0.2158,-0.2202,-0.2209,-0.2187,-0.2189,-0.2245,-0.2251,-0.2255,-0.2259,-0.228,-0.2282,-0.2283,-0.2308,-0.2307,-0.2306,0,0,0,0,0,0,-0.2049,-0.2055,-0.2115,-0.2093,-0.2101,-0.214,-0.2152,-0.2159,-0.2169,-0.2209,-0.2216,-0.2191,-0.2246,-0.2253,-0.2268,-0.2262,-0.2283,-0.2285,-0.2308,-0.2307,-0.2307,-0.2266,0,0,0,0,0,0,-0.2046,-0.2054,-0.2054,-0.2092,-0.2102,-0.2125,-0.2151,-0.2159,-0.2173,-0.2176,-0.2214,-0.2221,-0.2247,-0.2264,-0.227,-0.2265,-0.2286,-0.2309,-0.2308,-0.2307,-0.2268,-0.2264,-0.2261,0,0,0,0,0,-0.2043,-0.2041,-0.2054,-0.206,-0.2103,-0.2125,-0.2131,-0.216,-0.2172,-0.2173,-0.2198,-0.222,-0.2262,-0.2265,-0.2272,-0.2268,-0.2309,-0.2308,-0.2307,-0.227,-0.2265,-0.2261,0,0,0,0,0,0,-0.2001,-0.2046,-0.2061,-0.207,-0.2093,-0.2133,-0.2134,-0.2154,-0.2175,-0.2178,-0.2214,-0.2222,-0.2234,-0.2252,-0.2256,-0.2271,-0.2288,-0.2288,-0.2258,-0.2254,-0.225,-0.2245,-0.2288,0,0,0,0,0,-0.1993,-0.2007,-0.2045,-0.205,-0.2061,-0.2095,-0.2106,-0.2127,-0.2153,-0.2163,-0.2189,-0.2214,-0.2233,-0.2244,-0.2264,-0.2272,-0.2281,-0.2272,-0.2268,-0.2265,-0.2264,-0.227,-0.2267,-0.2302,-0.2302,-0.2302,0,0,-0.1976,-0.2002,-0.2009,-0.2042,-0.2062,-0.2076,-0.2103,-0.2117,-0.2128,-0.2165,-0.2181,-0.2201,-0.2231,-0.2242,-0.2249,-0.2258,-0.2257,-0.2263,-0.226,-0.2262,-0.2269,-0.2265,-0.2262,-0.2302,-0.2302,-0.2302,0,0,-0.1953,-0.1974,-0.198,-0.1999,-0.203,-0.2053,-0.2054,-0.209,-0.2105,-0.2121,-0.215,-0.2164,-0.2195,-0.2216,-0.223,-0.2215,-0.2235,-0.222,-0.22,-0.2205,-0.2203,-0.22,-0.2195,-0.2193,-0.222,-0.2219,-0.2219,0,-0.1928,-0.1949,-0.1981,-0.1992,-0.2006,-0.204,-0.2047,-0.2065,-0.21,-0.211,-0.212,-0.2161,-0.2183,-0.22,-0.2196,-0.2207,-0.221,-0.2216,-0.22,-0.2199,-0.2197,-0.2192,-0.219,-0.2217,-0.2218,-0.2218,-0.2218,0,-0.1918,-0.1932,-0.1934,-0.1966,-0.1981,-0.199,-0.2023,-0.2034,-0.2054,-0.2076,-0.2092,-0.2121,-0.2147,-0.2152,-0.2172,-0.2172,-0.2177,-0.2193,-0.2212,-0.2191,-0.2187,-0.2186,-0.2214,-0.2215,-0.2216,-0.2216,0,0,-0.1869,-0.1919,-0.1919,-0.1934,-0.197,-0.1982,-0.1993,-0.2018,-0.2027,-0.2051,-0.2061,-0.2087,-0.2103,-0.2119,-0.2141,-0.2146,-0.2132,-0.2162,-0.2163,-0.2156,-0.2135,-0.2122,-0.2119,-0.2146,-0.2146,-0.2146,-0.2132,0,-0.1851,-0.1872,-0.1901,-0.1912,-0.1927,-0.1959,-0.1969,-0.1993,-0.2014,-0.203,-0.2054,-0.2072,-0.2091,-0.2101,-0.2107,-0.2132,-0.2129,-0.2134,-0.2157,-0.2158,-0.2148,-0.2117,-0.2104,-0.209,-0.2131,-0.2131,-0.213,0,-0.1833,-0.1854,-0.1867,-0.1902,-0.1909,-0.1917,-0.1942,-0.1957,-0.1984,-0.2,-0.2018,-0.2042,-0.2056,-0.2073,-0.2093,-0.2096,-0.2108,-0.2122,-0.2122,-0.2125,-0.2143,-0.212,-0.2086,-0.2083,-0.2128,-0.2129,-0.2129,0,-0.1796,-0.1828,-0.184,-0.1852,-0.1893,-0.1898,-0.1915,-0.1944,-0.1957,-0.1979,-0.1988,-0.2012,-0.2026,-0.2044,-0.2074,-0.2083,-0.2092,-0.2111,-0.2106,-0.2105,-0.2106,-0.2105,-0.2073,-0.2113,-0.2113,-0.2113,-0.2113,0,-0.1773,-0.178,-0.1824,-0.1831,-0.1839,-0.1873,-0.1881,-0.1901,-0.1926,-0.1939,-0.1969,-0.198,-0.2019,-0.2036,-0.2059,-0.2073,-0.2079,-0.2092,-0.2098,-0.2089,-0.2088,-0.2097,-0.2099,-0.2112,-0.2113,-0.2113,-0.2113,0,-0.1733,-0.1763,-0.1778,-0.1816,-0.1825,-0.183,-0.1863,-0.1872,-0.1895,-0.191,-0.1916,-0.1952,-0.1973,-0.2005,-0.2035,-0.2051,-0.2061,-0.2072,-0.2051,-0.2055,-0.2048,-0.2049,-0.2021,-0.2019,-0.206,-0.206,-0.2059,0,-0.1717,-0.1723,-0.1761,-0.1771,-0.1787,-0.1803,-0.1816,-0.185,-0.1863,-0.1895,-0.19,-0.1923,-0.1943,-0.1974,-0.2004,-0.2028,-0.2039,-0.2028,-0.2043,-0.2033,-0.2039,-0.2038,-0.2039,-0.2024,-0.2023,-0.2023,-0.2022,0,-0.1684,-0.1698,-0.1716,-0.1739,-0.1754,-0.1774,-0.1796,-0.1802,-0.1841,-0.1854,-0.1875,-0.189,-0.1921,-0.1944,-0.1971,-0.1991,-0.2013,-0.2017,-0.2018,-0.2008,-0.1997,-0.2003,-0.2042,-0.2018,-0.2018,-0.2019,-0.2019,-0.2019,-0.1656,-0.1662,-0.169,-0.1709,-0.1729,-0.1748,-0.1758,-0.1782,-0.18,-0.1827,-0.1846,-0.1866,-0.1895,-0.1934,-0.1952,-0.1969,-0.1978,-0.1978,-0.1978,-0.1978,-0.1975,-0.1994,-0.1974,-0.1974,-0.1974,-0.1974,-0.1974,0,-0.1625,-0.1644,-0.1661,-0.169,-0.1705,-0.1724,-0.1749,-0.1761,-0.1777,-0.1802,-0.1821,-0.1845,-0.1867,-0.1899,-0.1923,-0.1931,-0.1942,-0.1936,-0.1936,-0.194,-0.1965,-0.1962,-0.1927,-0.1927,-0.1927,-0.1927,-0.1927,-0.1927,-0.161,-0.1623,-0.164,-0.1663,-0.1683,-0.1702,-0.1714,-0.1733,-0.1752,-0.1778,-0.1796,-0.1816,-0.1844,-0.1871,-0.1892,-0.1901,-0.1909,-0.19,-0.1912,-0.1934,-0.1938,-0.1943,-0.194,-0.1901,-0.1901,-0.1886,-0.1886,-0.1886]},{"header":{"parameterUnit":"m.s-1","parameterCategory":1,"la1":30.2991,"la2":30.254,"lo1":-89.0895,"lo2":-89.0444,"dy":0.0017,"dx":0.0017,"nx":28,"ny":28,"refTime":"2024-04-02T03:00:00:Z","depth":0,"parameterNumber":3,"parameterNumberName":"V-component_of_WINDS"},"data":[0,0,0,0,0,0,0,0,0,0,0,0,0,0,0,0,0,0,0,0,0,0,0,0,0,0,0,0,0,0,0,0,0,0,0,0,0,0,0,0,0,0,0,0,0,0,0,0,0,0,0,0,0,0,0,0,0,0,3.6032,3.6034,0,3.6241,3.6243,3.6246,3.6288,3.6287,3.6285,3.6284,3.6494,3.6501,3.6508,0,0,0,0,0,0,0,0,0,0,0,0,0,3.5667,3.5674,3.6032,3.6035,3.6037,3.624,3.6243,3.6246,3.6288,3.6287,3.6285,3.6283,3.6492,3.65,3.6509,0,0,0,0,0,0,0,0,0,0,0,0,0,3.5846,3.5676,3.6032,3.6083,3.609,3.624,3.6243,3.6247,3.6289,3.6287,3.6284,3.6282,3.6489,3.6499,3.651,3.6623,0,0,3.6542,3.6547,0,0,0,0,0,0,0,0,3.5836,3.5859,3.6073,3.608,3.6087,3.6236,3.6192,3.6373,3.629,3.6213,3.6284,3.6281,3.641,3.6427,3.6471,3.6633,3.6642,3.6543,3.655,3.6554,3.6557,0,0,0,0,0,0,0,3.5823,3.585,3.6115,3.6076,3.6085,3.6095,3.6117,3.6227,3.6322,3.622,3.6223,3.6248,3.6414,3.6461,3.6477,3.6645,3.6543,3.6552,3.6559,3.6563,3.6911,3.6914,0,0,0,0,0,0,3.5802,3.584,3.6108,3.6121,3.5953,3.6103,3.6129,3.6191,3.6321,3.6339,3.6249,3.6249,3.6444,3.6464,3.6484,3.6627,3.6554,3.6564,3.657,3.6908,3.6911,3.6915,0,0,0,0,0,0,3.5794,3.5826,3.61,3.5981,3.6017,3.6112,3.6181,3.6196,3.6244,3.6344,3.6361,3.628,3.6443,3.6469,3.6589,3.6635,3.6569,3.6579,3.6905,3.6909,3.6913,3.6911,0,0,0,0,0,0,3.5783,3.5823,3.5867,3.5982,3.6023,3.6201,3.6184,3.6202,3.6262,3.6263,3.6377,3.6394,3.6443,3.6573,3.6599,3.6648,3.6587,3.6901,3.6907,3.6912,3.6908,3.6915,3.6921,0,0,0,0,0,3.577,3.5857,3.5869,3.5901,3.6081,3.6204,3.6227,3.6283,3.6266,3.6311,3.6375,3.639,3.6625,3.6584,3.6615,3.6667,3.6898,3.6905,3.6911,3.6905,3.6914,3.6921,0,0,0,0,0,0,3.5744,3.5873,3.5888,3.6015,3.6098,3.6211,3.627,3.629,3.638,3.6377,3.6441,3.6467,3.6583,3.6637,3.6589,3.6784,3.6761,3.6773,3.6745,3.6755,3.6761,3.6747,3.6596,0,0,0,0,0,3.5753,3.5843,3.5951,3.6052,3.6093,3.6174,3.623,3.6266,3.6354,3.6389,3.6462,3.6547,3.664,3.67,3.6791,3.6915,3.6941,3.6966,3.6973,3.6978,3.6989,3.706,3.7073,3.6936,3.6936,3.6936,0,0,3.5772,3.5854,3.5907,3.6049,3.6118,3.6209,3.6204,3.63,3.6369,3.6404,3.6522,3.6578,3.6677,3.68,3.6857,3.6848,3.7032,3.6986,3.6989,3.6998,3.7068,3.7081,3.7093,3.694,3.6939,3.6939,0,0,3.5855,3.5925,3.6019,3.6088,3.6193,3.6246,3.6268,3.6379,3.6418,3.6538,3.6567,3.6648,3.6806,3.6876,3.6932,3.7041,3.7059,3.7069,3.7105,3.7174,3.7185,3.7195,3.7236,3.7249,3.7079,3.7079,3.7079,0,3.5866,3.6006,3.6064,3.616,3.6222,3.6259,3.6354,3.6418,3.6546,3.6588,3.6576,3.6776,3.6845,3.6986,3.7013,3.7056,3.7084,3.7057,3.7179,3.7189,3.7199,3.7239,3.7254,3.7079,3.7079,3.7079,3.7079,0,3.6015,3.6111,3.6174,3.6299,3.6368,3.6462,3.6534,3.6596,3.6626,3.668,3.6802,3.6886,3.6995,3.703,3.7059,3.7176,3.7167,3.7166,3.7144,3.7212,3.7251,3.7266,3.708,3.708,3.708,3.708,0,0,3.6088,3.6244,3.6267,3.6325,3.6443,3.6518,3.6614,3.6723,3.6776,3.6862,3.6945,3.7078,3.7079,3.7142,3.7179,3.7239,3.7323,3.7231,3.7234,3.7247,3.7458,3.746,3.7477,3.7334,3.7337,3.734,3.7451,0,3.6186,3.6362,3.6417,3.6563,3.6653,3.6689,3.6773,3.6855,3.6908,3.6992,3.7049,3.7144,3.7136,3.7175,3.7236,3.73,3.7367,3.7292,3.7413,3.7417,3.739,3.7497,3.7499,3.76,3.7466,3.7469,3.747,0,3.6326,3.6417,3.6573,3.6681,3.6721,3.6796,3.69,3.6979,3.7072,3.7106,3.7178,3.721,3.7312,3.7282,3.7424,3.7372,3.7424,3.7463,3.7468,3.7484,3.7449,3.7517,3.7633,3.7649,3.7494,3.7492,3.7491,0,3.6366,3.6528,3.6642,3.669,3.6819,3.6871,3.6926,3.7017,3.7079,3.7169,3.721,3.731,3.7365,3.7442,3.7501,3.7473,3.7638,3.7612,3.767,3.7669,3.7705,3.7702,3.7833,3.7734,3.7734,3.7733,3.7733,0,3.6472,3.6566,3.6663,3.6733,3.684,3.6901,3.7005,3.7062,3.7143,3.7225,3.726,3.7337,3.7408,3.7494,3.7539,3.7651,3.7675,3.7706,3.7717,3.7704,3.7701,3.7741,3.7737,3.7738,3.7737,3.7736,3.7735,0,3.6537,3.6605,3.6732,3.6844,3.6874,3.6948,3.7043,3.7113,3.7167,3.7271,3.7298,3.7383,3.7486,3.7551,3.7681,3.7712,3.7835,3.7843,3.7804,3.781,3.7865,3.786,3.8028,3.8055,3.7935,3.7936,3.7937,0,3.6601,3.6675,3.6795,3.6853,3.691,3.7003,3.7067,3.7129,3.7194,3.7306,3.7362,3.7467,3.7555,3.7717,3.779,3.789,3.7902,3.7954,3.7918,3.7903,3.7906,3.7902,3.7911,3.7961,3.7962,3.7963,3.7964,0,3.6709,3.6739,3.6831,3.6934,3.701,3.7094,3.7178,3.7223,3.73,3.7371,3.7477,3.7545,3.7679,3.7783,3.789,3.7946,3.7969,3.7974,3.7994,3.7982,3.7958,3.7974,3.7823,3.7971,3.797,3.797,3.7969,3.7969,3.6777,3.6845,3.6941,3.7042,3.7112,3.719,3.7261,3.7325,3.7415,3.753,3.7561,3.7672,3.7763,3.7909,3.7967,3.8055,3.8049,3.8075,3.8083,3.8089,3.8091,3.7942,3.8074,3.8074,3.8074,3.8074,3.8074,0,3.6889,3.6953,3.7045,3.7162,3.7242,3.7256,3.7349,3.7415,3.7513,3.7596,3.7682,3.7805,3.7906,3.7987,3.8091,3.8146,3.8159,3.8172,3.817,3.8183,3.809,3.8064,3.816,3.816,3.816,3.816,3.816,3.816,3.6957,3.7074,3.7115,3.7267,3.7329,3.744,3.7493,3.7565,3.7632,3.7768,3.7853,3.7905,3.7988,3.8099,3.8192,3.8214,3.8251,3.8262,3.8286,3.8198,3.8189,3.818,3.8156,3.8269,3.827,3.8372,3.8373,3.8373]}]]